Location: Terra Rouge Observatory
(46.0000°N, 62.7500°W)
Time: 15:50:49
(UTC-03:00)

NOSS 3-1 (A) - Visible Passes

Search period start: 02 September 2014 00:00
Search period end: 12 September 2014 00:00
Orbit: 896 x 1317 km, 63.4° (Epoch: 26 August)

Date Brightness Start Highest point End Pass type
(mag) Time Alt. Az. Time Alt. Az. Time Alt. Az.
02 Sep 5.6 21:11:37 10° NW 21:17:56 29° WSW 21:24:35 10° SSW visible
03 Sep 5.1 20:26:29 10° NW 20:33:31 44° WSW 20:41:00 10° S visible
04 Sep 6.4 21:35:12 10° WNW 21:38:48 14° WSW 21:42:31 10° SW visible
05 Sep 6.1 20:48:59 10° WNW 20:54:36 23° WSW 21:00:28 10° SSW visible
06 Sep 5.7 20:03:36 10° NW 20:10:15 34° WSW 20:17:17 10° S visible
08 Sep 6.5 20:26:38 10° WNW 20:31:12 17° WSW 20:35:56 10° SW visible
11 Sep 6.9 20:04:58 10° W 20:07:46 12° WSW 20:10:37 10° SW visible
